Location: Unspecified
(38.9820°N, 94.4650°W)
Time: 10:54:03
(UTC-06:00)

Hubble Space Telescope - Visible Passes

Search period start: 26 February 2017 00:00
Search period end: 08 March 2017 00:00
Orbit: 538 x 542 km, 28.5° (Epoch: 25 February)

Date Brightness Start Highest point End Pass type
(mag) Time Alt. Az. Time Alt. Az. Time Alt. Az.
26 Feb 2.7 19:45:30 10° SSW 19:48:12 17° S 19:48:14 17° S visible
27 Feb 2.6 19:35:17 10° SW 19:38:07 18° S 19:38:56 17° SSE visible
28 Feb 2.7 19:25:08 10° SW 19:28:03 19° S 19:29:36 15° SSE visible
01 Mar 2.7 19:15:02 10° SW 19:17:58 19° S 19:20:16 13° SE visible
02 Mar 2.8 19:04:58 10° SW 19:07:53 19° S 19:10:49 10° SE visible
03 Mar 2.9 18:54:57 10° SW 18:57:48 18° S 19:00:40 10° SE visible
04 Mar 3.0 18:45:00 10° SW 18:47:43 17° S 18:50:27 10° SE visible
